Regional Weather Roundup
Issued by NWS Albany, NY

Home | Current Version | Previous Version | Text Only | Print | Product List | Glossary On
Versions: 1 2 3 4 5 6 7 8 9 10 11 12 13 14 15 16 17 18 19 20 21 22 23 24 25 26 27 28 29 30 31 32 33 34 35 36 37 38 39 40 41 42 43 44 45 46 47 48 49 50
000
ASUS41 KALY 041510
RWRALY

NEW YORK STATE HOURLY WEATHER ROUNDUP
NATIONAL WEATHER SERVICE ALBANY NY
1100 AM EDT MON MAY 04 2015

NOTE: "FAIR" INDICATES FEW OR NO CLOUDS BELOW 12,000 FEET WITH NO
SIGNIFICANT WEATHER AND/OR NO OBSTRUCTIONS TO VISIBILITY.

NYZ032-033-038>043-046>054-057>066-NYZ062>081-041600-
EAST


CITY           SKY/WX    TMP DP  RH WIND       PRES   REMARKS
ALBANY         MOSUNNY   72  43  35 S7        30.15F
GLENS FALLS    SUNNY     73  45  36 S10       30.13F
POUGHKEEPSIE   SUNNY     77  46  33 W6        30.17F
NEWBURGH       MOSUNNY   73  48  40 CALM      30.21S
MONTGOMERY     SUNNY     78  48  34 SW7       30.18F
WHITE PLAINS   SUNNY     72  52  49 VRB6      30.21S
ISLIP          MOSUNNY   71  51  49 S7        30.22R
NEW YORK CITY  MOSUNNY   74  48  39 NE5       30.21S
CENTRAL PARK   MOSUNNY   78  44  29 VRB5      30.23F
$$

NYZ005>009-017-018-044>046-055-056-041600-
CENTRAL


CITY           SKY/WX    TMP DP  RH WIND       PRES   REMARKS
FULTON         MOSUNNY   77  46  33 SW8       30.10S
SYRACUSE       PTSUNNY   79  42  26 SW14      30.10F
ROME           PTSUNNY   74  45  35 NW6       30.12F
ELMIRA         SUNNY     74  48  39 CALM      30.14F
BINGHAMTON     SUNNY     72  42  34 SW10G17   30.18S
MONTICELLO     SUNNY     73  41  31 W10       30.23S
$$

NYZ026>034-041>043-041600-
NORTH


CITY           SKY/WX    TMP DP  RH WIND       PRES   REMARKS
WATERTOWN      SUNNY     78  45  30 SW14      30.06F
FORT DRUM      NOT AVBL
MASSENA        MOSUNNY   79  41  25 SW25G36   30.03F
SARANAC LAKE   SUNNY     74  37  26 SW20      30.09F
PLATTSBURGH    SUNNY     68  43  40 SE8       30.06F
$$

NYZ001>004-010>016-019>021-041600-
WEST


CITY           SKY/WX    TMP DP  RH WIND       PRES   REMARKS
NIAGARA FALLS  MOSUNNY   75  46  35 SW14      30.06F
BUFFALO        MOSUNNY   76  43  30 SW24G31   30.07F
DUNKIRK        SUNNY     76  44  32 SW22      30.09S
JAMESTOWN      SUNNY     72  43  35 SW16G23   30.15F
WELLSVILLE     SUNNY     73  37  27 SW14G29   30.18F
ROCHESTER      MOSUNNY   76  46  34 SW10      30.08F
PENN YAN       MOSUNNY   76  42  29 S10       30.13F
$$

             KEY
       WCI = WIND CHILL INDEX
       VSB = VISIBILITY
       HX  = HEAT INDEX
$$



USA.gov is the U.S. government's official web portal to all federal, state and local government web resources and services.